Snowfall_Accumulation
0.0 0.0 0.0 0.0 0.0 0.0 0.0 0.0 0.0 0.0 0.0 0.0 0.0 0.0 0.0 0.0 0.0 0.0 0.0 0.0 0.0 0.0 0.0 0.0 0.0 0.0 0.0 0.0 0.0 0.0 0.0 0.0 0.1 0.0 0.0 0.0 0.0 0.0 0.0 0.0 0.0 0.0 0.0
0.0 0.0 0.0 0.0 0.0 0.0 0.0 0.0 0.0 0.0 0.0 0.0 0.0 0.0 0.0 0.0 0.0 0.0 0.0 0.0 0.0 0.0 0.0 0.0 0.0 0.0 0.0 0.0 0.0 0.0 0.0 0.0 0.4 0.5 0.1 0.0 0.0 0.0 0.0 0.0 0.0 0.0 0.0
0.0 0.0 0.0 0.0 0.0 0.0 0.0 0.0 0.0 0.0 0.0 0.0 0.0 0.0 0.0 0.0 0.0 0.0 0.0 0.0 0.0 0.0 0.0 0.0 0.0 0.0 0.0 0.0 0.0 0.0 0.1 0.2 0.5 0.8 0.3 0.0 0.0 0.0 0.0 0.0 0.0 0.0 0.0
0.0 0.0 0.0 0.0 0.0 0.0 0.0 0.0 0.0 0.0 0.0 0.0 0.0 0.0 0.0 0.0 0.0 0.0 0.0 0.0 0.0 0.0 0.0 0.0 0.0 0.0 0.0 0.0 0.1 0.2 0.4 0.5 0.5 0.9 1.0 0.6 0.4 0.1 0.2 0.1 0.1 0.0 0.0
0.0 0.0 0.0 0.0 0.0 0.0 0.0 0.0 0.0 0.0 0.0 0.0 0.0 0.0 0.0 0.0 0.0 0.0 0.0 0.0 0.0 0.0 0.0 0.0 0.0 0.0 0.0 0.1 0.4 0.5 0.6 0.9 1.6 2.0 1.8 1.1 0.6 0.3 0.3 0.2 0.3 0.2 0.1
0.0 0.0 0.0 0.0 0.0 0.0 0.0 0.0 0.0 0.0 0.0 0.0 0.0 0.0 0.0 0.0 0.0 0.0 0.0 0.0 0.0 0.0 0.0 0.0 0.0 0.0 0.0 0.2 0.3 0.6 1.2 2.0 2.6 2.8 2.4 1.5 0.6 0.3 0.3 0.5 0.9 1.3 1.0
0.0 0.0 0.0 0.0 0.0 0.0 0.0 0.0 0.0 0.0 0.0 0.0 0.0 0.0 0.0 0.0 0.0 0.0 0.0 0.0 0.0 0.0 0.0 0.0 0.0 0.0 0.1 0.0 0.1 0.7 1.2 1.7 1.9 1.9 1.5 0.8 0.6 0.5 1.3 2.3 2.2 2.5 1.8
0.0 0.0 0.0 0.0 0.0 0.0 0.0 0.0 0.0 0.0 0.0 0.0 0.0 0.0 0.0 0.0 0.0 0.0 0.0 0.0 0.0 0.0 0.0 0.0 0.0 0.1 0.1 0.4 0.9 1.4 1.0 0.6 0.5 0.4 0.5 0.6 0.7 0.9 2.0 3.5 3.4 2.6 1.2
0.0 0.0 0.0 0.0 0.0 0.0 0.0 0.0 0.0 0.0 0.0 0.0 0.0 0.0 0.0 0.0 0.0 0.0 0.0 0.0 0.0 0.0 0.0 0.1 0.2 0.2 0.3 1.3 2.1 1.9 0.9 0.2 0.1 0.3 0.6 0.6 0.6 0.6 0.9 2.8 3.8 3.7 2.4
0.0 0.0 0.0 0.0 0.0 0.0 0.0 0.0 0.0 0.0 0.0 0.0 0.0 0.0 0.0 0.0 0.0 0.0 0.0 0.1 0.1 0.1 0.1 0.1 0.2 0.3 0.9 1.9 1.8 1.5 0.7 0.2 0.6 0.4 0.2 0.1 0.1 0.1 0.4 2.1 5.3 7.4 4.8
0.0 0.0 0.0 0.0 0.0 0.0 0.0 0.0 0.0 0.0 0.0 0.0 0.0 0.0 0.0 0.0 0.0 0.0 0.1 0.2 0.4 0.5 0.4 0.2 0.1 0.7 1.4 1.6 1.1 0.4 0.5 1.3 1.1 0.4 0.2 0.1 0.1 0.2 0.3 0.8 2.9 7.7 9.3
0.0 0.0 0.0 0.0 0.0 0.0 0.0 0.0 0.0 0.0 0.0 0.0 0.0 0.0 0.0 0.0 0.0 0.0 0.2 0.5 0.9 0.9 0.6 0.3 0.5 1.0 1.0 0.6 0.2 0.3 0.8 0.7 0.3 0.3 0.4 0.4 0.5 0.6 0.7 1.2 1.8 3.4 5.9
0.0 0.0 0.0 0.0 0.0 0.0 0.0 0.0 0.0 0.0 0.0 0.0 0.0 0.0 0.0 0.0 0.0 0.0 0.2 0.6 0.9 0.8 0.7 0.9 1.0 0.6 0.2 0.0 0.0 0.2 0.2 0.3 0.9 1.5 1.1 0.7 0.7 1.1 1.5 2.2 2.5 2.8 3.2
0.0 0.0 0.0 0.0 0.0 0.0 0.0 0.0 0.0 0.0 0.0 0.0 0.0 0.0 0.0 0.0 0.0 0.0 0.4 0.5 0.7 0.8 0.8 0.7 0.4 0.1 0.1 0.1 0.1 0.1 0.2 0.6 2.0 3.1 2.5 1.5 1.4 1.9 3.3 4.8 5.9 6.2 7.5
0.0 0.0 0.0 0.0 0.0 0.0 0.0 0.0 0.0 0.0 0.0 0.0 0.0 0.1 0.1 0.1 0.2 0.8 1.0 0.9 1.1 1.2 1.0 0.2 0.0 0.0 0.1 0.1 0.1 0.2 0.4 0.8 1.9 2.7 3.4 3.7 3.8 4.6 6.4 8.0 8.9 8.8 8.1
0.0 0.0 0.0 0.0 0.0 0.0 0.0 0.0 0.0 0.0 0.0 0.0 0.0 0.1 0.1 0.3 0.6 0.8 0.9 1.2 1.2 0.9 0.5 0.1 0.1 0.2 0.3 0.3 0.5 0.6 0.6 1.3 2.6 3.8 4.4 5.5 6.9 7.7 8.7 8.8 8.8 8.2 7.0
0.0 0.0 0.0 0.0 0.0 0.0 0.0 0.0 0.0 0.0 0.0 0.0 0.0 0.1 0.2 0.3 0.5 0.6 0.9 1.0 0.5 0.3 0.5 0.6 0.6 0.6 0.7 0.8 1.0 1.5 1.8 2.1 3.7 5.4 7.1 8.1 9.2 9.5 9.5 8.8 7.6 6.1 4.6
0.0 0.0 0.0 0.0 0.0 0.0 0.0 0.0 0.0 0.0 0.0 0.0 0.0 0.0 0.1 0.2 0.3 0.5 0.8 0.5 0.1 0.5 1.2 1.8 2.0 1.3 1.4 1.6 2.3 3.1 3.9 4.6 5.5 7.5 8.3 9.4 10.5 10.8 9.4 7.6 5.8 4.3 3.0
0.0 0.0 0.0 0.0 0.0 0.0 0.0 0.0 0.0 0.0 0.1 0.0 0.0 0.0 0.0 0.1 0.2 0.3 0.3 0.1 0.4 0.7 1.3 2.0 2.3 2.0 2.0 2.9 3.7 4.8 6.2 7.4 8.2 9.3 9.8 10.6 10.9 9.9 7.5 5.0 3.2 1.7 1.4
0.0 0.0 0.0 0.0 0.0 0.0 0.0 0.0 0.0 0.1 0.2 0.2 0.1 0.1 0.0 0.3 0.4 0.2 0.1 0.2 0.4 0.6 0.9 1.5 1.9 1.9 2.2 3.5 4.6 5.8 7.4 8.3 9.2 9.8 10.5 10.6 9.2 7.3 5.2 2.9 1.8 1.5 1.2
0.0 0.0 0.0 0.0 0.0 0.0 0.0 0.1 0.1 0.3 0.3 0.2 0.1 0.1 0.5 0.6 0.4 0.2 0.2 0.3 0.4 0.5 0.8 1.3 1.7 2.3 3.0 4.3 5.5 6.3 7.5 8.6 9.8 10.5 10.2 8.7 6.6 4.5 2.5 1.9 1.6 1.5 1.3
0.0 0.0 0.0 0.0 0.0 0.0 0.1 0.2 0.2 0.3 0.3 0.3 0.2 0.1 0.3 0.2 0.2 0.3 0.3 0.3 0.2 0.3 0.5 1.1 1.5 2.1 4.1 6.6 8.5 9.1 8.5 8.4 8.8 9.1 8.1 6.0 4.0 2.6 1.8 1.7 1.5 1.5 1.3
0.0 0.0 0.0 0.0 0.1 0.1 0.2 0.1 0.2 0.3 0.3 0.3 0.2 0.2 0.2 0.2 0.3 0.3 0.3 0.2 0.2 0.2 0.3 0.7 1.4 2.0 3.5 6.5 9.3 11.9 12.4 11.0 9.8 8.9 7.8 5.6 3.3 2.4 2.3 2.1 1.8 1.4 1.0
0.0 0.0 0.1 0.1 0.2 0.2 0.2 0.2 0.2 0.2 0.3 0.3 0.3 0.3 0.3 0.3 0.3 0.2 0.2 0.2 0.2 0.2 0.3 0.8 1.5 2.3 3.7 6.6 9.1 10.6 11.8 12.3 11.7 10.0 8.1 6.0 3.8 2.6 2.2 1.8 1.4 1.1 0.8
0.1 0.1 0.1 0.2 0.2 0.2 0.2 0.2 0.2 0.2 0.3 0.3 0.4 0.4 0.3 0.3 0.2 0.2 0.2 0.2 0.3 0.3 0.2 0.6 1.6 2.8 4.5 6.6 8.7 10.3 10.6 10.1 8.3 6.2 4.2 2.9 2.2 1.8 1.6 1.4 1.1 0.8 0.6
0.1 0.1 0.1 0.1 0.1 0.1 0.1 0.2 0.3 0.3 0.3 0.4 0.4 0.4 0.4 0.3 0.3 0.3 0.3 0.3 0.4 0.3 0.3 0.5 1.2 2.9 4.8 6.6 8.0 9.7 9.5 7.2 4.5 2.5 1.5 1.2 1.2 1.1 1.0 0.9 0.7 0.5 0.4